Topeka Forbes, KS

8:47 PM CST on November 22, 2017 (GMT -0600)
Forbes

Weather History for KFOE - December, 2013

Change the Weather History Date:

Sunday, December 1, 2013

  Actual Average Record
Temperature  
Mean Temperature 40 °F -  
Max Temperature 55 °F 45 °F 68 °F (2012)
Min Temperature 25 °F 27 °F 5 °F (1985)
Degree Days  
Heating Degree Days 25    
Moisture  
Dew Point 29 °F    
Average Humidity 71    
Maximum Humidity 96    
Minimum Humidity 40    
Precipitation  
Precipitation 0.00 in - - ()
Sea Level Pressure  
Sea Level Pressure 30.04 in    
Wind  
Wind Speed 2 mph (East)    
Max Wind Speed 7 mph    
Max Gust Speed -    
Visibility 9 miles    
Events      
Averages and records for this station are not official NWS values.
T = Trace of Precipitation, MM = Missing Value Source: NWS Daily Summary

Daily Weather History Graph

Daily Weather History Graph

Search for Another Location

Airport or City:

Trip Planner

Search our weather history database for the weather conditions in past years. The results will help you decide how hot, cold, wet, or windy it might be!

Date:

Astronomy

Dec. 01, 2013 Rise Set
Actual Time 7:22 AM CST 5:00 PM CST
Civil Twilight 6:53 AM CST 5:30 PM CST
Nautical Twilight 6:20 AM CST 6:03 PM CST
Astronomical Twilight 5:47 AM CST 6:35 PM CST
Moon 5:42 AM CST (12/1) 4:10 PM CST (12/1)
Length of Visible Light 10h 37m
Length of Day
9h 38m
Waning Crescent, 2% of the Moon is Illuminated
Dec 1
Waning Crescent
Dec 2
New
Dec 9
First Quarter
Dec 17
Full
Dec 25
Last Quarter

Hourly Weather History & Observations

Time (CST) Temp. Windchill Dew Point Humidity Pressure Visibility Wind Dir Wind Speed Gust Speed Precip Events Conditions
12:53 AM 28.0 °F - 24.1 °F 85% 30.12 in 6.0 mi Calm Calm - N/A   Clear
1:53 AM 26.1 °F 20.5 °F 23.0 °F 88% 30.12 in 10.0 mi NNW 4.6 mph - N/A   Clear
2:53 AM 27.0 °F - 23.0 °F 85% 30.12 in 7.0 mi Calm Calm - N/A   Clear
3:53 AM 26.1 °F - 21.9 °F 84% 30.12 in 9.0 mi Calm Calm - N/A   Clear
4:53 AM 25.0 °F 20.7 °F 21.9 °F 88% 30.13 in 6.0 mi NNW 3.5 mph - N/A   Clear
5:53 AM 26.1 °F 21.9 °F 25.0 °F 96% 30.13 in 6.0 mi NNE 3.5 mph - N/A   Clear
6:53 AM 26.1 °F 21.9 °F 21.9 °F 84% 30.14 in 8.0 mi North 3.5 mph - N/A   Clear
7:53 AM 28.0 °F - 25.0 °F 88% 30.14 in 5.0 mi Calm Calm - N/A   Clear
8:53 AM 33.1 °F - 28.9 °F 85% 30.15 in 6.0 mi Calm Calm - N/A   Clear
9:53 AM 41.0 °F 38.0 °F 33.1 °F 73% 30.14 in 8.0 mi NNE 4.6 mph - N/A   Clear
10:53 AM 46.9 °F - 36.0 °F 66% 30.12 in 10.0 mi SE 3.5 mph - N/A   Clear
11:53 AM 51.1 °F - 35.1 °F 54% 30.09 in 10.0 mi Calm Calm - N/A   Clear
12:53 PM 53.1 °F - 33.1 °F 47% 30.05 in 10.0 mi South 3.5 mph - N/A   Clear
1:53 PM 55.9 °F - 33.1 °F 42% 30.03 in 10.0 mi Calm Calm - N/A   Clear
2:53 PM 55.9 °F - 32.0 °F 40% 30.00 in 10.0 mi Calm Calm - N/A   Clear
3:53 PM 55.9 °F - 33.1 °F 42% 29.99 in 10.0 mi Calm Calm - N/A   Clear
4:53 PM 51.1 °F - 32.0 °F 48% 29.97 in 10.0 mi East 3.5 mph - N/A   Clear
5:53 PM 46.9 °F - 32.0 °F 56% 29.96 in 10.0 mi ESE 3.5 mph - N/A   Clear
6:53 PM 41.0 °F - 32.0 °F 70% 29.97 in 10.0 mi Calm Calm - N/A   Clear
7:53 PM 42.1 °F - 32.0 °F 67% 29.95 in 10.0 mi Calm Calm - N/A   Clear
8:53 PM 39.9 °F - 30.9 °F 70% 29.93 in 10.0 mi Calm Calm - N/A   Clear
9:53 PM 37.0 °F 33.3 °F 30.0 °F 76% 29.91 in 10.0 mi SE 4.6 mph - N/A   Clear
10:53 PM 35.1 °F 32.2 °F 28.9 °F 78% 29.89 in 9.0 mi ESE 3.5 mph - N/A   Clear
11:53 PM 34.0 °F 28.0 °F 30.0 °F 85% 29.87 in 8.0 mi SSE 6.9 mph - N/A   Clear